Date,TemperatureHighF,TemperatureAvgF,TemperatureLowF,DewpointHighF,DewpointAvgF,DewpointLowF,HumidityHigh,HumidityAvg,HumidityLow,PressureMaxIn,PressureMinIn,WindSpeedMaxMPH,WindSpeedAvgMPH,GustSpeedMaxMPH,PrecipitationSumIn
2013-1-1,29,22,14,18,8,0,67,54,42,30.14,29.99,26,8,26,0.04
2013-1-2,25,20,12,15,10,1,75,66,58,30.16,30.05,30,5,30,0.00
2013-1-3,28,22,14,23,14,4,83,72,61,30.14,30.02,29,8,29,0.00
2013-1-4,32,26,23,21,16,12,77,65,51,30.14,29.99,41,10,41,0.00
2013-1-5,34,25,16,30,19,12,90,78,64,30.25,30.02,23,7,23,0.00
2013-1-6,34,33,31,32,29,24,90,86,74,30.22,29.90,26,6,26,0.00
2013-1-7,36,31,27,24,21,18,77,67,52,30.34,30.14,34,7,34,0.04
2013-1-8,36,27,20,25,20,16,86,76,61,30.22,30.14,17,4,17,0.04
2013-1-9,47,35,23,33,24,18,90,67,40,30.40,30.02,38,10,38,0.04
2013-1-10,47,34,27,34,24,18,85,70,47,30.55,30.16,21,5,21,0.04
2013-1-11,55,42,34,54,40,30,98,92,84,30.16,29.75,26,5,26,0.55
2013-1-12,59,49,44,50,46,42,98,89,66,29.93,29.81,21,6,21,0.00
2013-1-13,50,39,36,48,38,36,98,96,91,29.93,29.72,31,9,31,0.55
2013-1-14,24,21,17,12,10,9,71,64,57,30.40,30.34,12,2,12,0.00
2013-1-15,33,22,13,23,12,7,81,67,52,30.40,30.14,12,1,12,0.00
2013-1-16,39,29,20,24,16,13,81,60,37,30.14,29.78,31,7,31,0.00
2013-1-17,38,30,18,26,16,1,76,57,42,30.28,29.93,53,14,53,0.00
2013-1-18,33,24,13,18,10,0,65,54,44,30.40,29.96,34,10,34,0.00
2013-1-19,47,40,33,31,25,18,64,54,45,29.96,29.57,42,12,42,0.00
2013-1-20,43,20,15,31,4,-1,62,47,43,30.14,29.54,48,16,48,0.00
2013-1-21,18,12,3,8,-1,-13,74,54,48,30.11,29.93,38,10,38,0.00
2013-1-22,7,2,-3,-9,-13,-18,48,48,48,30.22,30.08,30,5,30,0.00
2013-1-23,17,9,1,5,-5,-14,63,52,48,30.22,30.05,20,3,20,0.00
2013-1-24,24,13,8,6,-2,-9,61,50,39,30.52,30.08,28,9,30,0.00
2013-1-25,20,17,13,13,6,-6,80,64,42,30.46,29.99,17,3,17,0.00
2013-1-26,28,21,17,16,11,5,83,66,46,30.40,30.02,25,7,25,0.00
2013-1-27,29,21,12,26,13,6,90,70,51,30.43,30.11,26,5,26,0.00
2013-1-28,43,36,29,43,35,26,98,96,90,30.11,29.84,22,4,22,0.43
2013-1-29,55,44,34,54,44,34,98,98,98,30.02,29.49,30,5,30,0.71
2013-1-30,58,49,33,58,48,28,98,97,83,29.49,29.13,39,9,39,0.47
2013-1-31,32,22,14,28,12,5,86,66,50,29.84,29.22,56,16,56,0.00
2013-2-1,23,13,8,8,3,-4,76,63,45,30.22,29.84,35,11,35,0.00
2013-2-2,22,15,10,16,7,-3,80,70,56,30.16,29.90,22,8,22,0.00
2013-2-3,21,14,5,14,4,-2,77,67,56,29.99,29.81,34,8,34,0.00
2013-2-4,23,18,15,16,11,2,80,71,56,29.99,29.84,14,1,14,0.00
2013-2-5,27,21,13,24,15,9,88,77,54,29.93,29.78,0,0,0,0.00
2013-2-6,34,23,14,23,12,7,87,64,42,30.25,29.93,19,2,19,0.08
2013-2-7,41,30,23,25,19,12,72,65,51,30.25,29.87,12,5,16,0.00
2013-2-8,29,25,17,27,20,10,95,79,63,30.31,29.75,52,14,52,0.00
2013-2-9,36,21,10,26,11,4,89,68,42,30.40,30.25,17,6,17,0.12
2013-2-10,38,28,17,33,22,11,88,76,58,30.25,29.69,21,4,21,0.12
2013-2-11,44,36,31,43,28,20,97,73,55,29.84,29.54,52,14,52,0.12
2013-2-12,33,30,28,24,20,16,73,65,57,30.02,29.84,38,10,38,0.00
2013-2-13,41,30,26,23,19,16,74,64,44,29.90,29.72,22,6,22,0.00
2013-2-14,38,33,26,34,28,20,90,81,68,29.81,29.66,39,9,39,0.00
2013-2-15,34,27,23,26,13,7,75,54,43,30.08,29.81,31,12,31,0.00
2013-2-16,25,20,13,17,10,5,76,64,50,30.08,29.93,31,7,31,0.00
2013-2-17,24,16,8,10,3,-3,81,61,43,30.16,30.02,30,9,30,0.00
2013-2-18,42,29,12,31,16,-3,69,58,48,30.16,29.60,32,6,32,0.00
2013-2-19,43,28,17,40,21,6,96,75,58,29.90,29.43,43,4,43,0.12
2013-2-20,22,19,15,11,7,3,72,59,49,30.19,29.90,0,0,0,0.00
2013-2-21,29,22,19,14,10,7,71,61,47,30.34,30.19,0,0,0,0.00
2013-2-22,33,27,21,32,23,14,97,85,71,30.22,29.87,21,6,21,0.04
2013-2-23,33,30,25,32,20,14,97,67,50,29.90,29.84,29,8,29,0.00
2013-2-24,36,28,22,24,18,14,81,68,53,30.11,29.87,29,7,29,0.00
2013-2-25,44,30,19,30,20,16,93,68,42,30.19,30.08,20,4,20,0.08
2013-2-26,35,31,27,32,24,16,98,76,55,30.11,29.49,29,6,29,0.16
2013-2-27,34,33,32,34,33,32,98,98,98,29.57,29.43,19,3,19,0.20
2013-2-28,37,33,29,35,29,23,98,88,73,29.93,29.52,43,12,43,0.35
2013-3-1,29,26,24,23,19,16,79,74,69,30.08,29.93,35,13,35,0.00
2013-3-2,26,24,22,19,16,13,80,72,65,30.05,30.02,28,11,28,0.00
2013-3-3,31,23,16,15,11,7,77,62,44,30.02,29.96,33,10,33,0.00
2013-3-4,37,25,14,16,11,7,80,57,40,30.11,30.02,20,6,20,0.00
2013-3-5,39,28,20,21,17,8,79,62,45,30.11,29.81,26,6,26,0.00
2013-3-6,43,33,26,29,24,19,85,70,52,30.16,29.81,26,7,26,0.00
2013-3-7,35,32,24,30,23,13,88,70,52,30.37,30.16,26,8,26,0.00
2013-3-8,48,32,21,25,19,13,79,59,40,30.46,30.34,17,4,17,0.00
2013-3-9,46,34,24,31,24,18,86,67,48,30.40,30.02,25,3,25,0.00
2013-3-10,61,48,35,42,34,28,78,60,41,30.02,29.81,30,6,30,0.00
2013-3-11,54,48,37,48,42,30,97,80,53,29.81,29.49,47,11,47,0.31
2013-3-12,37,34,29,32,27,23,88,77,64,29.90,29.66,30,9,30,0.00
2013-3-13,31,28,24,26,17,9,86,63,44,30.14,29.84,43,14,43,0.00
2013-3-14,42,30,20,19,13,7,67,48,38,30.22,30.05,32,9,32,0.04
2013-3-15,38,34,31,32,26,15,91,72,47,30.05,29.84,31,7,31,0.04
2013-3-16,33,29,23,31,24,13,95,84,61,30.02,29.75,12,0,12,0.00
2013-3-17,37,27,20,20,13,8,77,56,41,30.22,29.99,17,2,17,0.12
2013-3-18,34,29,21,33,24,8,97,81,57,30.16,29.54,26,7,26,0.08
2013-3-19,34,26,22,32,16,11,93,66,54,29.90,29.60,30,1,30,0.00
2013-3-20,29,24,17,13,10,4,60,54,45,29.90,29.87,39,5,39,0.00
2013-3-21,31,23,14,22,14,5,81,69,53,29.90,29.81,35,12,35,0.00
2013-3-22,40,30,25,19,15,12,66,54,42,29.99,29.90,34,12,34,0.00
2013-3-23,40,30,23,24,19,16,84,63,44,30.08,29.99,22,7,22,0.00
2013-3-24,37,30,23,26,20,15,81,66,45,30.05,29.63,26,5,26,0.00
2013-3-25,41,34,31,25,22,19,72,61,49,29.87,29.54,36,10,36,0.00
2013-3-26,45,36,32,28,25,22,78,63,43,30.08,29.87,33,12,33,0.00
2013-3-27,47,38,29,28,23,20,78,56,38,30.16,30.08,39,14,39,0.00
2013-3-28,53,40,30,25,21,18,70,47,33,30.22,30.16,30,10,30,0.00
2013-3-29,54,41,31,24,19,15,56,42,29,30.25,30.16,21,7,21,0.00
2013-3-30,57,43,28,26,21,15,65,43,27,30.19,29.93,26,4,26,0.00
2013-3-31,59,45,34,43,30,20,84,58,34,29.93,29.60,34,6,34,0.00
2013-4-1,42,33,26,30,14,8,73,47,34,30.08,29.66,43,15,43,0.00
2013-4-2,42,31,22,17,11,8,71,45,33,30.22,30.08,33,10,33,0.00
2013-4-3,44,32,23,15,10,5,55,40,30,30.40,30.22,39,8,39,0.00
2013-4-4,56,40,24,22,16,10,56,40,26,30.34,29.93,26,5,26,0.00
2013-4-5,51,42,32,24,18,12,64,39,29,30.19,29.93,30,6,30,0.00
2013-4-6,50,39,28,24,19,14,59,45,33,30.22,29.78,35,4,35,0.00
2013-4-7,57,50,38,42,32,24,66,50,37,30.02,29.60,40,11,42,0.00
2013-4-8,64,45,33,58,37,25,93,76,49,30.05,29.69,45,4,45,0.12
2013-4-9,51,46,41,47,42,38,92,86,79,30.08,29.90,31,3,31,0.00
2013-4-10,47,42,38,45,41,37,98,97,92,29.99,29.84,36,4,36,0.47
2013-4-11,38,37,36,38,36,35,98,98,98,29.96,29.63,26,6,26,0.98
2013-4-12,42,38,35,41,35,32,98,90,72,29.75,29.52,35,5,35,0.24
2013-4-13,42,38,35,36,28,22,86,67,50,29.96,29.75,35,8,35,0.00
2013-4-14,49,39,32,38,29,22,79,67,59,30.11,29.93,21,3,21,0.00
2013-4-15,68,53,36,51,42,30,86,67,45,29.96,29.87,38,7,38,0.00
2013-4-16,62,54,47,54,41,27,95,64,34,30.22,29.87,32,7,32,0.08
2013-4-17,62,48,39,40,32,25,88,56,35,30.31,30.02,20,6,20,0.59
2013-4-18,78,57,43,64,54,40,98,89,52,30.05,29.57,68,8,68,0.51
2013-4-19,58,45,36,58,38,24,98,77,51,29.75,29.34,44,11,44,0.35
2013-4-20,40,34,28,28,18,11,81,51,40,30.43,29.72,44,13,44,0.08
2013-4-21,51,37,24,30,21,13,81,54,38,30.61,30.43,23,4,23,0.08
2013-4-22,63,46,29,36,26,17,81,48,26,30.46,30.19,17,3,17,0.08
2013-4-23,69,54,38,52,38,26,91,57,33,30.19,29.81,38,7,38,0.12
2013-4-24,55,40,34,53,38,27,98,92,73,30.11,29.75,35,10,35,0.55
2013-4-25,35,35,34,27,26,25,72,70,68,30.14,30.11,16,2,16,0.00
2013-4-26,36,36,34,25,22,22,68,59,56,30.34,30.11,8,2,8,0.04
2013-4-27,70,54,37,45,34,29,89,51,26,30.34,30.11,25,4,25,0.08
2013-4-28,55,52,47,53,42,28,97,72,44,30.11,29.84,12,1,12,0.28
2013-4-29,68,60,53,58,51,47,98,76,49,29.96,29.84,17,4,17,0.08
2013-4-30,70,60,50,58,51,47,93,75,51,30.11,29.96,32,5,32,0.08
2013-5-1,82,65,50,62,51,46,95,64,34,30.25,30.08,26,3,26,0.08
2013-5-2,78,63,53,52,47,42,75,58,35,30.25,30.16,24,3,24,0.08
2013-5-3,78,70,59,51,42,32,50,36,24,30.14,30.08,21,4,21,0.00
2013-5-4,71,62,54,46,39,32,66,44,30,30.14,30.08,21,3,21,0.00
2013-5-5,73,62,52,42,36,30,64,40,24,30.11,30.05,17,3,17,0.00
2013-5-6,75,61,46,45,38,32,69,44,33,30.08,29.99,17,2,17,0.00
2013-5-7,76,64,50,49,42,34,63,47,32,30.08,30.02,17,2,17,0.00
2013-5-8,80,64,54,59,46,40,80,54,30,30.05,29.96,17,3,17,0.04
2013-5-9,79,66,51,61,48,40,94,58,30,29.99,29.93,16,2,16,0.00
2013-5-10,69,58,42,63,50,38,95,76,46,29.93,29.75,34,8,34,0.28
2013-5-11,61,47,38,46,39,28,91,75,48,29.90,29.72,40,9,40,0.00
2013-5-12,48,40,34,31,25,18,78,56,40,30.08,29.87,38,10,38,0.00
2013-5-13,53,42,29,26,22,18,71,47,31,30.16,30.08,26,6,26,0.00
2013-5-14,75,56,40,45,36,24,69,48,33,30.11,29.75,26,4,26,0.00
2013-5-15,82,69,52,61,46,38,88,49,27,29.81,29.60,41,8,41,0.00
2013-5-16,81,68,54,45,41,32,60,39,26,30.05,29.81,30,7,30,0.00
2013-5-17,73,61,49,42,38,32,65,44,32,30.16,30.05,15,3,15,0.00
2013-5-18,80,66,56,46,41,37,56,41,30,30.16,30.05,16,2,16,0.00
2013-5-19,84,70,55,59,52,39,72,54,39,30.08,29.90,21,2,21,0.00
2013-5-20,88,74,61,70,61,54,92,67,33,29.96,29.81,33,4,33,0.00
2013-5-21,83,74,66,68,59,53,87,62,38,29.84,29.75,25,4,25,0.12
2013-5-22,79,68,62,67,61,53,95,81,43,29.78,29.66,38,5,38,0.16
2013-5-23,62,53,42,61,51,38,97,93,86,30.14,29.72,31,4,31,0.12
2013-5-24,54,46,38,39,32,28,90,61,40,30.34,30.14,31,6,31,0.00
2013-5-25,64,50,35,40,32,27,87,54,34,30.40,30.28,25,3,25,0.00
2013-5-26,68,54,39,41,33,30,82,48,27,30.34,30.22,23,2,23,0.00
2013-5-27,61,51,42,49,39,30,94,66,38,30.28,30.02,19,2,19,0.59
2013-5-28,73,61,51,72,60,49,98,97,84,30.02,29.84,22,2,22,0.24
2013-5-29,82,73,64,67,62,55,89,69,43,30.02,29.81,30,5,30,0.00
2013-5-30,84,72,64,73,65,61,91,79,51,30.08,29.99,29,3,29,0.24
2013-5-31,80,70,64,70,65,62,96,84,61,30.02,29.87,31,4,31,0.24
2013-6-1,78,69,63,68,63,59,97,81,55,29.87,29.72,26,5,26,0.24
2013-6-2,69,64,53,64,54,40,89,71,52,29.99,29.66,30,6,30,0.00
2013-6-3,66,56,43,40,37,33,77,51,33,30.08,29.99,22,5,22,0.24
2013-6-4,71,59,47,44,39,28,80,50,33,30.19,30.08,17,2,17,0.00
2013-6-5,72,61,49,43,37,27,53,41,32,30.19,30.02,15,1,15,0.00
2013-6-6,67,60,55,50,44,38,66,56,49,30.02,29.87,22,4,22,0.00
2013-6-7,61,56,50,52,49,44,86,77,67,29.93,29.87,22,3,22,0.00
2013-6-8,71,62,55,53,49,46,84,65,42,30.11,29.93,16,1,16,0.00
2013-6-9,74,66,56,56,52,46,86,63,44,30.14,29.99,12,2,12,0.00
2013-6-10,69,64,60,68,62,48,98,92,53,29.99,29.75,15,0,15,1.18
2013-6-11,80,70,63,67,63,58,98,79,48,29.90,29.78,21,4,21,0.00
2013-6-12,74,69,63,67,63,58,94,83,72,29.96,29.66,16,2,16,0.04
2013-6-13,76,68,59,64,56,48,98,72,40,29.93,29.57,39,7,39,1.22
2013-6-14,75,66,58,54,50,44,80,58,35,30.08,29.93,26,6,26,3.98
2013-6-15,77,66,57,61,56,48,87,71,46,30.11,29.96,16,0,16,0.00
2013-6-16,79,70,62,66,58,45,97,71,32,29.96,29.81,26,3,26,0.35
2013-6-17,84,72,63,60,53,48,74,54,31,29.96,29.87,21,3,21,0.00
2013-6-18,71,63,55,56,49,35,93,62,35,30.11,29.90,25,4,25,0.00
2013-6-19,74,62,50,49,43,34,69,51,35,30.19,30.08,15,1,15,0.00
2013-6-20,79,66,52,60,49,46,88,59,33,30.22,30.16,20,2,20,0.00
2013-6-21,84,71,58,64,56,49,81,61,39,30.22,30.08,24,2,24,0.00
2013-6-22,83,74,65,72,64,58,81,73,62,30.14,30.02,20,3,20,0.00
2013-6-23,87,78,68,69,64,60,90,66,42,30.11,29.99,26,4,26,0.00
2013-6-24,85,76,66,69,65,61,89,70,50,30.08,29.96,17,3,20,0.00
2013-6-25,83,73,67,72,66,61,94,79,59,30.02,29.84,20,3,20,0.79
2013-6-26,82,72,66,70,66,64,97,82,62,29.93,29.78,17,3,19,0.24
2013-6-27,82,71,65,74,67,62,95,87,64,29.78,29.66,22,2,22,1.50
2013-6-28,74,66,63,70,64,58,98,94,74,29.66,29.54,31,1,31,1.22
2013-6-29,74,67,62,68,61,53,98,83,62,29.75,29.57,22,2,22,0.00
2013-6-30,77,68,61,62,54,42,86,63,42,29.96,29.75,23,3,23,0.00
2013-7-1,66,62,58,59,52,42,94,71,45,30.08,29.96,22,4,22,0.31
2013-7-2,72,65,58,61,59,56,94,81,66,30.11,30.05,22,1,22,0.00
2013-7-3,80,69,60,70,62,56,92,78,50,30.14,30.08,21,2,22,0.00
2013-7-4,78,72,68,69,63,58,94,74,53,30.16,30.11,19,2,19,0.00
2013-7-5,81,73,69,70,64,55,93,73,43,30.14,30.08,16,1,16,0.00
2013-7-6,82,73,68,72,67,62,94,81,59,30.14,30.02,17,1,17,0.04
2013-7-7,80,73,68,72,67,63,97,84,59,30.08,29.99,17,2,17,0.00
2013-7-8,80,72,67,75,68,63,96,89,74,30.08,29.99,20,2,22,0.39
2013-7-9,86,75,70,75,70,63,98,86,51,30.02,29.90,29,2,29,0.20
2013-7-10,86,76,67,78,67,54,98,78,47,29.96,29.78,34,5,34,0.28
2013-7-11,77,68,60,55,52,48,79,57,38,30.11,29.96,22,5,22,0.28
2013-7-12,80,68,56,61,55,51,91,65,40,30.16,30.08,16,2,16,0.00
2013-7-13,82,72,61,65,58,52,90,64,37,30.25,30.16,15,1,15,0.28
2013-7-14,88,76,66,74,66,60,93,72,45,30.28,30.22,12,0,12,0.00
2013-7-15,90,78,70,76,70,66,94,80,49,30.31,30.25,17,1,17,1.02
2013-7-16,87,80,73,80,74,70,97,85,67,30.34,30.25,16,1,16,0.28
2013-7-17,90,82,74,76,72,70,90,74,55,30.31,30.19,21,3,21,0.00
2013-7-18,91,82,73,76,71,63,89,71,44,30.19,29.99,22,2,22,0.28
2013-7-19,91,82,75,74,70,59,89,68,40,30.02,29.75,34,5,34,0.28
2013-7-20,84,75,68,72,62,52,96,69,34,29.96,29.75,24,3,24,0.28
2013-7-21,82,72,63,62,57,52,76,60,40,30.05,29.96,15,1,15,0.00
2013-7-22,79,72,67,70,63,58,87,72,52,29.99,29.81,14,1,14,0.28
2013-7-23,78,70,60,75,63,48,96,81,57,29.90,29.72,31,4,31,0.28
2013-7-24,71,63,57,49,47,45,71,55,42,30.08,29.90,26,4,26,0.28
2013-7-25,75,63,52,60,51,45,90,66,38,30.14,30.08,17,2,17,0.04
2013-7-26,76,68,59,58,54,51,82,64,44,30.14,29.93,22,3,22,0.00
2013-7-27,71,65,55,68,61,52,94,89,69,29.96,29.78,19,2,19,0.43
2013-7-28,65,57,50,56,51,48,95,81,59,29.99,29.87,22,3,22,0.04
2013-7-29,67,61,55,55,52,50,87,74,57,30.19,29.99,17,3,17,0.00
2013-7-30,76,65,54,62,54,50,93,70,43,30.25,30.16,15,1,15,0.00
2013-7-31,75,67,63,69,63,56,95,86,71,30.16,29.90,17,0,17,0.31
2013-8-1,76,67,62,65,60,52,98,81,45,29.96,29.90,24,2,24,0.00
2013-8-2,73,64,57,63,57,52,90,77,55,29.96,29.87,26,3,26,0.00
2013-8-3,77,68,60,63,55,46,96,67,35,30.08,29.93,26,4,26,0.00
2013-8-4,72,63,55,54,50,47,87,64,42,30.16,30.08,26,4,26,0.00
2013-8-5,69,63,56,57,52,48,84,69,48,30.14,29.99,16,1,16,0.00
2013-8-6,76,67,62,65,61,54,92,81,64,29.99,29.93,21,2,21,0.04
2013-8-7,80,70,64,72,66,62,95,87,67,29.96,29.87,21,2,21,0.04
2013-8-8,75,70,65,69,62,56,90,77,58,30.05,29.93,22,4,22,0.04
2013-8-9,78,68,60,58,54,50,82,63,39,30.05,29.99,17,2,17,0.00
2013-8-10,76,68,62,61,56,49,87,67,42,30.16,30.05,17,2,17,0.00
2013-8-11,78,67,57,63,55,51,89,66,42,30.16,30.05,22,2,22,0.00
2013-8-12,68,66,63,67,62,56,98,87,68,30.08,29.87,13,1,13,0.91
2013-8-13,66,61,54,64,51,40,98,73,42,30.08,29.87,31,7,31,0.00
2013-8-14,69,59,49,52,46,42,86,64,41,30.16,30.08,22,6,22,0.00
2013-8-15,72,62,50,52,48,44,88,62,39,30.19,30.11,17,3,17,0.00
2013-8-16,76,65,55,57,51,48,85,63,40,30.22,30.14,17,2,17,0.00
2013-8-17,79,66,55,63,52,44,91,64,32,30.28,30.22,12,1,12,0.00
2013-8-18,79,67,58,68,56,51,94,70,38,30.25,30.14,12,1,12,0.00
2013-8-19,81,69,58,63,54,47,89,63,31,30.14,30.08,20,2,20,0.00
2013-8-20,83,73,63,64,60,56,82,65,42,30.16,30.11,21,2,21,0.00
2013-8-21,84,74,65,67,64,61,91,71,50,30.16,30.02,26,4,26,0.00
2013-8-22,82,74,69,67,65,62,89,74,53,30.08,29.99,20,4,20,0.00
2013-8-23,81,70,60,66,52,44,88,56,30,30.22,30.05,22,4,22,0.00
2013-8-24,82,68,58,67,54,50,92,65,34,30.34,30.22,17,1,17,0.00
2013-8-25,86,71,58,63,57,53,92,64,36,30.31,30.16,26,3,26,0.00
2013-8-26,86,76,67,70,64,58,88,66,52,30.19,30.02,22,4,22,0.00
2013-8-27,80,74,70,76,72,68,96,90,80,30.02,29.87,31,2,31,0.43
2013-8-28,80,75,69,77,71,64,98,88,67,30.05,29.81,22,3,22,0.55
2013-8-29,85,74,66,74,67,64,95,80,54,30.11,30.02,12,1,12,0.24
2013-8-30,85,75,67,73,66,63,96,77,49,30.05,29.78,26,3,26,0.24
2013-8-31,78,72,69,72,67,61,97,84,64,29.87,29.78,17,2,17,0.24
2013-9-1,79,71,67,71,66,62,92,84,74,29.90,29.75,11,0,11,0.24
2013-9-2,76,68,60,69,60,48,93,75,49,29.93,29.75,30,8,30,0.00
2013-9-3,72,63,57,53,50,48,80,65,44,30.05,29.93,24,6,24,0.24
2013-9-4,79,67,56,61,55,52,90,68,43,30.11,30.02,21,5,21,0.24
2013-9-5,70,63,54,60,48,41,87,61,35,30.28,30.11,28,5,28,0.24
2013-9-6,73,59,46,55,44,40,90,61,32,30.28,30.11,16,1,16,0.00
2013-9-7,80,66,57,68,59,49,89,76,55,30.11,29.93,17,2,17,0.24
2013-9-8,73,67,56,66,56,44,91,69,44,30.11,29.96,21,4,21,0.00
2013-9-9,71,63,53,69,59,45,96,88,67,30.11,29.93,12,0,12,0.24
2013-9-10,92,79,67,76,67,58,97,72,35,30.05,29.93,25,3,25,0.00
2013-9-11,89,79,70,69,65,62,81,63,48,30.08,29.93,58,4,58,0.43
2013-9-12,77,67,56,66,57,49,98,74,39,29.99,29.87,34,8,34,0.04
2013-9-13,60,54,45,49,41,33,78,61,44,30.14,29.99,34,9,34,0.00
2013-9-14,67,53,41,47,38,36,89,62,33,30.19,30.11,12,2,17,0.00
2013-9-15,61,55,49,52,48,42,91,78,66,30.14,30.08,17,2,17,0.04
2013-9-16,55,55,54,52,52,52,92,92,91,30.14,30.14,5,0,5,0.00
2013-10-7,56,50,48,42,41,40,79,69,56,30.14,29.96,17,1,17,0.00
2013-10-8,69,54,46,51,42,35,88,67,37,30.28,30.14,20,2,20,0.00
2013-10-9,72,54,43,60,44,38,96,72,38,30.34,30.22,19,1,19,0.00
2013-10-10,73,56,47,60,45,38,97,71,33,30.25,30.16,12,0,12,0.00
2013-10-11,73,55,43,56,43,38,96,68,34,30.16,30.11,12,1,12,0.00
2013-10-12,78,62,51,66,52,44,96,75,33,30.14,30.08,20,1,20,0.00
2013-10-13,69,59,49,58,44,32,93,60,32,30.34,30.11,26,6,26,0.00
2013-10-14,66,52,44,45,40,36,88,65,38,30.40,30.28,20,2,20,0.00
2013-10-15,65,53,43,60,50,37,96,89,74,30.28,29.87,21,2,21,0.04
2013-10-16,62,56,51,60,50,39,98,80,48,29.93,29.84,29,5,29,0.04
2013-10-17,51,49,46,48,46,43,97,90,81,29.93,29.78,17,3,17,0.12
2013-10-18,63,50,41,51,41,35,98,76,37,29.93,29.84,24,4,24,0.00
2013-10-19,47,43,38,45,39,36,96,87,71,29.93,29.75,25,2,25,0.28
2013-10-20,58,46,36,45,38,34,97,75,42,29.93,29.84,34,3,34,0.00
2013-10-21,54,49,39,47,41,32,90,74,56,29.87,29.81,31,7,31,0.08
2013-10-22,50,41,32,34,26,22,78,58,40,29.93,29.84,26,4,26,0.00
2013-10-23,48,38,32,35,27,21,90,64,38,29.93,29.81,29,5,29,0.00
2013-10-24,49,37,31,33,28,22,92,71,40,30.16,29.93,25,5,25,0.00
2013-10-25,47,37,31,35,28,23,97,72,43,30.31,30.11,26,6,26,0.00
2013-10-26,49,42,36,36,28,23,88,60,45,30.11,29.78,30,8,30,0.08
2013-10-27,52,41,33,36,30,25,93,68,41,30.05,29.99,0,0,0,0.00
2013-10-28,51,42,35,38,30,25,75,63,55,30.37,30.02,0,0,0,0.00
2013-10-29,50,42,36,31,29,26,72,61,46,30.43,30.25,0,0,0,0.00
2013-10-30,66,48,35,52,38,28,94,71,42,30.25,29.96,0,0,0,0.08
2013-10-31,61,58,51,60,57,44,98,95,77,29.99,29.19,0,0,0,1.26
2013-11-1,60,49,45,60,43,35,98,79,59,29.66,29.16,0,0,0,0.08
2013-11-2,46,43,34,44,40,32,97,91,82,30.11,29.66,0,0,0,0.20
2013-11-3,45,36,30,40,32,25,97,86,65,30.43,30.08,0,0,0,0.00
2013-11-4,49,39,30,39,30,25,88,70,46,30.46,30.28,0,0,0,0.00
2013-11-5,52,47,39,45,40,31,87,78,70,30.34,30.16,0,0,0,0.00
2013-11-6,55,51,43,53,47,37,95,85,63,30.16,29.81,0,0,0,0.16
2013-11-7,45,39,33,37,28,20,90,67,40,30.14,29.99,0,0,0,0.08
2013-11-8,46,35,30,33,25,17,94,70,41,30.25,30.11,0,0,0,0.00
2013-11-9,56,46,34,37,31,25,76,57,43,30.16,29.81,0,0,0,0.00
2013-11-10,48,42,35,37,26,22,77,54,43,30.25,29.90,0,0,0,0.00
2013-11-11,42,36,27,37,29,18,92,78,66,30.28,30.02,0,0,0,0.12
2013-11-12,35,28,23,19,14,10,73,57,43,30.49,30.28,0,0,0,0.04
2013-11-13,42,30,20,22,14,8,77,53,31,30.52,30.14,0,0,0,0.00
2013-11-14,50,38,27,25,18,11,56,44,37,30.14,29.99,0,0,0,0.00
2013-11-15,51,42,35,27,22,17,56,46,38,30.05,29.99,0,0,0,0.00
2013-11-16,56,45,33,52,38,24,86,76,57,30.11,29.81,0,0,0,0.00
2013-11-17,61,57,49,60,55,37,98,92,62,29.81,29.25,0,0,0,0.71
2013-11-18,39,35,34,25,21,18,62,54,51,30.11,29.81,0,0,0,0.00
2013-11-19,45,34,26,21,17,13,62,49,38,30.37,30.11,0,0,0,0.71
2013-11-20,49,35,25,35,22,15,84,62,39,30.40,30.22,0,0,0,0.00
2013-11-21,47,42,36,42,35,24,93,77,62,30.28,30.16,0,0,0,0.28
2013-11-22,45,39,27,44,35,20,98,87,68,30.34,30.14,0,0,0,0.04
2013-11-23,29,24,16,23,13,3,85,63,43,30.46,30.22,0,0,0,0.71
2013-11-24,26,18,14,8,4,1,67,55,43,30.55,30.37,0,0,0,0.00
2013-11-25,30,24,18,22,11,5,75,57,45,30.37,30.05,0,0,0,0.00
2013-11-26,33,31,28,27,24,22,82,77,73,30.08,29.90,0,0,0,0.00
2013-11-27,29,23,18,22,10,4,79,56,43,30.14,29.90,0,0,0,0.00
2013-11-28,27,22,16,19,11,5,76,63,54,30.37,30.14,0,0,0,0.00
2013-11-29,37,23,14,26,14,8,86,67,48,30.61,30.37,0,0,0,0.00
2013-11-30,45,33,25,25,21,15,74,62,43,30.52,30.08,0,0,0,0.00
2013-12-1,44,36,30,31,27,22,87,71,55,30.08,29.96,0,0,0,0.00
2013-12-2,41,33,27,30,23,14,88,70,43,29.99,29.87,0,0,0,0.00
2013-12-3,37,33,26,36,29,17,96,84,65,29.90,29.81,0,0,0,0.04
2013-12-4,53,45,36,51,43,35,98,96,93,29.90,29.63,0,0,0,0.00
2013-12-5,57,39,30,55,28,16,95,64,51,30.14,29.63,0,0,0,0.00
2013-12-6,30,26,20,17,12,7,60,56,52,30.34,30.08,0,0,0,0.00
2013-12-7,26,19,13,8,4,0,63,51,42,30.55,30.34,0,0,0,0.00
2013-12-8,28,19,11,24,9,-2,84,65,52,30.55,29.96,0,0,0,0.00
2013-12-9,29,25,19,25,16,8,89,70,57,30.05,29.87,0,0,0,0.00
2013-12-10,22,19,10,11,5,-3,66,55,43,30.14,29.93,0,0,0,0.00
2013-12-11,23,17,6,15,6,-7,76,63,53,30.40,30.14,0,0,0,0.00
2013-12-12,20,12,2,9,-2,-10,62,53,43,30.40,30.14,0,0,0,0.00
2013-12-13,28,24,20,17,14,9,73,67,61,30.25,30.11,0,0,0,0.00
2013-12-14,21,19,16,18,13,6,87,79,56,30.22,29.78,0,0,0,0.00
2013-12-15,24,19,14,22,14,5,90,79,61,29.99,29.75,0,0,0,0.00
2013-12-16,26,17,10,14,4,-4,74,58,48,30.14,29.96,0,0,0,0.00
2013-12-17,26,21,14,22,16,6,86,80,67,29.96,29.84,0,0,0,0.00
2013-12-18,32,25,21,23,18,11,90,75,55,30.08,29.87,0,0,0,0.00
2013-12-19,40,32,24,30,23,11,83,68,56,29.96,29.84,0,0,0,0.12
2013-12-20,37,34,33,36,32,29,98,93,83,29.90,29.72,0,0,0,0.47
2013-12-21,34,33,32,34,33,32,98,98,98,29.84,29.63,0,0,0,0.67
2013-12-22,36,34,32,36,34,32,98,98,97,29.93,29.54,0,0,0,0.28
2013-12-23,33,28,20,32,22,10,98,79,59,30.25,29.93,0,0,0,0.28
2013-12-24,20,14,8,10,2,-6,74,59,46,30.49,30.25,0,0,0,0.00
2013-12-25,24,18,8,20,10,-6,85,72,53,30.46,30.08,0,0,0,0.00
2013-12-26,28,25,23,24,17,11,91,74,52,30.25,29.99,0,0,0,0.00
2013-12-27,40,32,23,31,25,16,85,76,64,30.28,30.02,0,0,0,0.04
2013-12-28,48,39,30,33,29,23,79,69,49,30.08,29.87,0,0,0,0.00
2013-12-29,43,33,21,29,26,14,88,73,52,29.96,29.66,0,0,0,0.00
2013-12-30,21,18,14,14,4,-1,73,54,47,30.22,29.96,0,0,0,0.00
2013-12-31,20,16,14,10,6,2,75,64,54,30.28,30.02,0,0,0,0.00
2014-1-1,15,13,11,9,6,5,80,75,74,30.34,30.16,0,0,0,0.00
2014-1-2,15,11,2,10,6,-4,81,79,76,30.19,30.02,0,0,0,0.00